Voltar ao catálogo

NOAA 16 DEB

AtivoSSO
NORAD 41243·DEBRIS·🇺🇸 United States

Lançado Sep 21, 2000 de Vandenberg Space Force Base

Loading…

Próximas Passagens (próximas 24 horas)

TLE

AtualizadoSource: Space-Track

Época: Sep 13, 2026, 04:38 UTC

1 41243U 00055ET  26256.19366030  .00002005  00000-0  81289-3 0  9991
2 41243  98.7249 339.7882 0005532 150.2565 209.8932 14.28829537552716

Acompanhe NOAA 16 DEB em tempo real com AllMySat

Download on the App Store